Tracking 27371 objects as of 7-Jun-2023
HD Live streaming from Space Station
objects crossing your sky now

COSMOS 2251 DEB

Track COSMOS 2251 DEB now!
10-day predictions


NORAD ID: 35061
Int'l Code: 1993-036AHQ
Perigee: 675.5 km
Apogee: 745.0 km
Inclination: 74.0 °
Period: 98.8 minutes
Semi major axis: 7081 km
RCS: 0.009 m2 (small)
Launch date: June 16, 1993
Source: Commonwealth of Independent States (former USSR) (CIS)
Launch site: PLESETSK MISSILE AND SPACE COMPLEX (PKMTR)

Note: This is SATELLITE DEBRIS
Your satellite tracking list
Your tracking list is empty




NASA's NSSDC Master Catalog

Two Line Element Set (TLE):
1 35061U 93036AHQ 23157.66496546  .00002837  00000-0  62824-3 0  9995
2 35061  74.0497 266.0505 0049112 255.8273 103.7432 14.56927794751288
Source of the keplerian elements: AFSPC